DW0946 Weather Reports


time (UTC)temp
C
wind
direction
speed
KPH
gust
KPH
rain 1hr
cm
rain 24hr
cm
rain mn
cm
humidity
%
barometer
mb
20260507020039 10 284 0.0 1.6 0.00 0.89 0.71 68 1012.7
20260507014526 10 295 0.0 1.6 0.00 0.91 0.71 69 1012.7
20260507013101 10 294 0.0 4.8 0.00 0.91 0.71 67 1012.7
20260507011524 10 276 0.0 6.4 0.00 0.91 0.71 66 1012.6
20260507010026 10 183 0.0 0.0 0.00 0.91 0.71 67 1012.1
20260507004521 11 287 0.0 3.2 0.00 0.91 0.71 67 1012.0
20260507003026 11 287 0.0 4.8 0.00 0.91 0.71 65 1011.7
20260507001524 11 309 0.0 6.4 0.00 0.91 0.71 63 1011.5
20260507000018 11 293 0.0 4.8 0.00 0.91 0.71 65 1011.3
20260506234517 12 299 0.0 8.0 0.00 0.94 0.71 60 1011.5
20260506233016 12 319 0.0 8.0 0.00 0.94 0.71 61 1011.5
20260506231516 12 300 0.0 8.0 0.00 0.94 0.71 61 1011.8
20260506230015 12 284 1.6 8.0 0.00 0.94 0.71 64 1011.8
20260506224515 12 307 1.6 9.7 0.00 0.94 0.71 60 1011.9
20260506223012 13 271 1.6 8.0 0.00 0.94 0.71 61 1011.5
20260506221510 13 294 0.0 8.0 0.00 0.94 0.71 61 1011.0
20260506220009 14 18 0.0 8.0 0.00 0.94 0.71 58 1011.0
20260506214506 14 244 0.0 6.4 0.00 0.94 0.71 58 1010.7
20260506213010 15 316 1.6 8.0 0.00 0.94 0.71 54 1010.6
20260506211505 15 266 0.0 11.3 0.00 0.94 0.71 54 1010.3
20260506210005 15 283 1.6 6.4 0.00 0.94 0.71 51 1010.2
20260506204505 16 276 0.0 8.0 0.00 0.94 0.71 56 1010.2
20260506203003 16 248 1.6 8.0 0.00 0.94 0.71 53 1010.1
20260506201503 16 233 3.2 8.0 0.00 0.94 0.71 47 1010.2
20260506200002 16 284 3.2 11.3 0.00 0.94 0.71 52 1010.0
20260506194607 16 260 4.8 12.9 0.00 0.94 0.71 49 1010.2
20260506194501 16 291 6.4 12.9 0.00 0.94 0.71 53 1010.2
20260506193100 15 53 1.6 8.0 0.00 0.94 0.71 58 1009.9
20260506191557 15 288 0.0 11.3 0.00 0.94 0.71 56 1010.3
20260506190059 15 285 1.6 6.4 0.00 0.94 0.71 59 1010.3
20260506184556 15 278 0.0 9.7 0.00 0.94 0.71 62 1010.4
20260506183059 14 329 3.2 8.0 0.00 0.94 0.71 59 1010.3
20260506181550 15 257 0.0 9.7 0.00 0.94 0.71 65 1010.3
20260506180052 14 314 4.8 11.3 0.00 0.94 0.71 62 1010.4
20260506174547 14 315 1.6 6.4 0.00 0.94 0.71 65 1010.3
20260506173048 14 276 4.8 9.7 0.00 0.94 0.71 65 1010.3
20260506171554 14 287 3.2 6.4 0.00 0.94 0.71 70 1010.4
20260506170046 13 226 1.6 12.9 0.00 0.94 0.71 76 1010.6
20260506164540 13 276 0.0 9.7 0.00 0.94 0.71 82 1010.1
20260506163043 12 55 1.6 9.7 0.00 0.94 0.71 83 1010.2
20260506161538 11 130 0.0 4.8 0.00 0.94 0.71 87 1010.3
20260506160035 10 256 4.8 9.7 0.00 0.94 0.71 94 1010.2
20260506154534 10 316 3.2 8.0 0.00 0.94 0.71 94 1010.0
20260506153032 10 264 3.2 11.3 0.00 0.94 0.71 94 1010.0
20260506151534 10 278 0.0 4.8 0.00 0.94 0.71 95 1009.8
20260506150028 10 245 3.2 8.0 0.00 0.94 0.71 95 1009.5
20260506144527 9 301 1.6 8.0 0.00 0.94 0.71 96 1009.2
20260506143025 10 263 1.6 4.8 0.00 0.94 0.71 96 1009.2
20260506141523 9 253 0.0 3.2 0.00 0.94 0.71 96 1008.7
20260506140027 9 274 0.0 6.4 0.00 0.94 0.71 96 1008.6
20260506134521 8 271 3.2 8.0 0.00 0.94 0.71 96 1008.7
20260506133038 8 305 1.6 9.7 0.00 0.94 0.71 96 1008.3
20260506131523 8 330 1.6 6.4 0.00 0.94 0.71 96 1008.2
20260506130018 7 241 0.0 4.8 0.03 0.94 0.71 95 1008.4
20260506124516 7 248 0.0 8.0 0.03 0.94 0.71 95 1008.0
20260506123014 7 124 1.6 9.7 0.03 0.94 0.71 95 1007.8
20260506121515 7 93 0.0 9.7 0.00 0.91 0.71 95 1007.7
20260506120018 7 232 3.2 8.0 0.00 0.91 0.71 95 1007.5
20260506114506 7 221 1.6 6.4 0.03 0.91 0.71 94 1006.8
20260506113004 7 262 0.0 4.8 0.03 0.91 0.71 94 1006.5
20260506111503 7 44 0.0 3.2 0.03 0.91 0.71 94 1006.3
20260506110002 7 337 0.0 4.8 0.03 0.91 0.71 94 1006.5
20260506104501 7 229 1.6 4.8 0.00 0.89 0.69 94 1006.1
20260506103104 7 221 3.2 9.7 0.00 0.89 0.69 94 1005.5
20260506101558 7 300 3.2 11.3 0.08 0.89 0.69 94 1005.5
20260506100059 7 251 1.6 9.7 0.15 0.89 0.69 94 1005.2
20260506094551 8 49 4.8 12.9 0.18 0.89 0.69 94 1005.0
20260506093047 8 283 3.2 12.9 0.25 0.89 0.69 94 1004.8
20260506091544 8 319 3.2 11.3 0.20 0.81 0.61 94 1005.2
20260506090039 10 290 1.6 14.5 0.15 0.71 0.53 94 1005.1
20260506084540 12 287 4.8 11.3 0.15 0.71 0.51 95 1004.6
20260506083036 13 167 0.0 0.0 0.10 0.64 0.43 95 1004.1
20260506081533 13 162 0.0 3.2 0.13 0.61 0.41 95 1003.9
20260506073030 13 148 0.0 4.8 0.13 0.53 0.33 95 1004.1
20260506071528 13 141 0.0 1.6 0.10 0.48 0.28 95 1004.2
20260506061522 13 123 0.0 0.0 0.03 0.38 0.18 94 1004.8
20260506044509 13 136 0.0 0.0 0.15 0.33 0.13 93 1005.6
20260506043006 13 128 0.0 0.0 0.13 0.30 0.10 93 1006.0
20260506041505 13 109 0.0 0.0 0.15 0.28 0.08 93 1006.2
20260506040002 13 109 0.0 0.0 0.08 0.20 0.00 92 1006.5
20260506034501 13 109 0.0 0.0 0.08 0.18 0.18 92 1006.5
20260506033100 13 109 0.0 0.0 0.10 0.18 0.18 92 1006.3
20260506031559 14 109 0.0 0.0 0.10 0.15 0.15 92 1006.3
20260506030100 14 109 0.0 0.0 0.08 0.13 0.13 92 1006.3
20260506024600 14 108 0.0 0.0 0.08 0.10 0.10 92 1006.3
20260506023059 14 108 0.0 0.0 0.05 0.08 0.08 91 1006.3
20260506021606 14 108 0.0 0.0 0.03 0.05 0.05 91 1006.2